Back to Previous

Regional Weather Roundup

000
ASUS44 KLZK 220105
RWRLZK

WEATHER ROUNDUP FOR ARKANSAS
NATIONAL WEATHER SERVICE LITTLE ROCK AR
700 PM CST SUN DEC 21 2014

NOTE: "FAIR" INDICATES FEW OR NO CLOUDS BELOW 12,000 FEET WITH NO
SIGNIFICANT WEATHER AND/OR OBSTRUCTIONS TO VISIBILITY.

ARZ001-003-010-029-220200-
NORTHWEST ARKANSAS
  
CITY           SKY/WX    TMP DP  RH WIND       PRES   REMARKS
FAYETTEVILLE   CLOUDY    44  38  79 SE5       29.87S                  
FORT SMITH     CLOUDY    48  39  71 E5        29.89S                  
HARRISON       CLOUDY    43  36  76 SE10      29.90F                  
BENTONVILLE    CLOUDY    45  36  70 SE10      29.87S                  
ROGERS         CLOUDY    43  37  79 SE12      29.87S                  
SILOAM SPGS    CLOUDY    45  34  65 SE9       29.87F                  
HIGHFILL       CLOUDY    44  38  79 SE9       29.86S                  
SPRINGDALE     CLOUDY    43  37  81 SE6G15    29.88F                  
$$

ARZ004-005-016-220200-
NORTH CENTRAL ARKANSAS
  
CITY           SKY/WX    TMP DP  RH WIND       PRES   REMARKS
BATESVILLE     CLOUDY    46  37  71 E8        29.97S                  
FLIPPIN        MOCLDY    45  34  65 E5        29.92F                  
MTN HOME       CLOUDY    44  36  73 E6        29.92F                  
$$

ARZ040-041-220200-
WEST CENTRAL ARKANSAS
  
CITY           SKY/WX    TMP DP  RH WIND       PRES   REMARKS
MENA           CLOUDY    52  43  71 CALM      29.89S                  
MOUNT IDA      CLOUDY    50  41  71 CALM      29.88F                  
$$

ARZ009-017-025-026-028-220200-
NORTHEAST ARKANSAS
  
CITY           SKY/WX    TMP DP  RH WIND       PRES   REMARKS
CORNING        CLOUDY    43  37  81 NE7       30.01S                  
JONESBORO      CLOUDY    45  39  79 E8        29.99S                  
NEWPORT        CLOUDY    45  42  89 NE6       30.00S                  
WALNUT RIDGE   CLOUDY    43  36  75 NE8       29.98F                  
BLYTHEVILLE    MOCLDY    40  35  83 E12       29.99F                  
$$

ARZ022-023-033-042-044-220200-
CENTRAL ARKANSAS
  
CITY           SKY/WX    TMP DP  RH WIND       PRES   REMARKS
LITTLE ROCK    PTCLDY    48  37  65 E3        29.96S                  
N LITTLE ROCK  PTCLDY    48  40  75 SE7       29.96S                  
JACKSONVILLE   MOCLDY    47  37  67 E3        29.96S                  
SEARCY         CLOUDY    48  37  65 E7        29.98F                  
HOT SPRINGS    MOCLDY    46  39  76 E5        29.93S                  
RUSSELLVILLE   CLOUDY    49  37  63 E5        29.92S                  
CLINTON        CLOUDY    48  37  66 E3        29.97R                  
$$

ARZ036-220200-
EAST ARKANSAS
  
CITY           SKY/WX    TMP DP  RH WIND       PRES   REMARKS
WEST MEMPHIS   CLEAR     45  35  68 E3        29.98F                  
$$

ARZ050-053-066-070-073-220200-
SOUTHWEST ARKANSAS
  
CITY           SKY/WX    TMP DP  RH WIND       PRES   REMARKS
ARKADELPHIA    FAIR      45  45 100 CALM      29.94S                  
CAMDEN         CLEAR     45  39  81 CALM      29.94S                  
TEXARKANA      PTCLDY    49  45  86 SE5       29.91S                  
EL DORADO      CLEAR     47  42  83 E6        29.93F                  
DE QUEEN       CLOUDY    51  44  77 SW3       29.90S                  
$$

ARZ056-057-069-220200-
SOUTHEAST ARKANSAS
  
CITY           SKY/WX    TMP DP  RH WIND       PRES   REMARKS
PINE BLUFF     PTCLDY    45  38  76 SE6       29.95F                  
STUTTGART      PTCLDY    46  36  66 E6        29.97S                  
MONTICELLO     CLEAR     50  39  66 E5        29.95F                  

$$



USA.gov is the U.S. government's official web portal to all federal, state and local government web resources and services.